sat.trackr.live / text

‹ back to catalog

STARLINK-35528

NORAD 66094 · 2025-236J

PAYLOAD ACTIVE UNKNOWN

§ Identity

Operator
Country
US
Launch date
2025-10-19
Launch site
AFWTR
Launch vehicle
Mass (kg)
RCS (m²)

Purposes: comms

External: N2YO · Heavens-Above · Gunter

§ Orbital elements

Epoch: 2026-05-25T03:41:35.651904Z

Period
94.10 min
Inclination
53.1600°
Eccentricity
0.0001609
Mean motion
15.30240806 rev/d
Perigee alt
474.0 km
Apogee alt
476.2 km
Semi-major
6,853.2 km
B*
1.1868e-3
RAAN
108.5604°
Arg perigee
94.2276°
Mean anomaly
265.8909°
Rev number
3,465

§ Raw data

STARLINK-355281 66094U 25236J   26145.15388486  .00035000  00000+0  11868-2 0  99972 66094  53.1600 108.5604 0001609  94.2276 265.8909 15.30240806 34658

JSON: /api/v1/satellites/66094 · /tle

For live sub-satellite position, see the globe view (requires WebGL).

§ Visibility from observer

Set your observer location to see the next 7 days of passes ≥ 10°. The values pass through the URL so the page stays shareable.

No JS? Fill the form by hand. The geolocation button needs JavaScript.